TIME,DELAY(SENSOR),PRES,OXYGEN,RAWTEMP,T(OPTODE),TCPHASE,FLUOR,BETA(BETA700),BETA(BETA412),BETA(BETA440),CDOM,C(CSC),ED(ED411.90),ED(ED443.80),ED(ED489.40),ED(ED554.70),LU(LU412.20),LU(LU443.80),LU(LU489.40),LU(LU555.00),COMP,TILTX,TILTY,CHECK
1352153208,5804,861.5200195312500000,162.6732940673828000,413.1849975585937500,10.2004299163818360,38.9831390380859400,53,106,65,64,70,13664,2146958006,2147517129,2147288365,2147501211,2147090194,2146926884,2147701494,2147123172,3031,-1,8,59597
1352156804,5806,968.5800170898438000,188.9743041992187500,484.5129089355469000,8.0091810226440430,38.3310012817382800,52,101,65,62,72,13668,2146961910,2147519003,2147294957,2147514413,2147091117,2146925714,2147716754,2147121389,129,-1,8,7860
1352160404,5804,983.1500244140625000,195.6470947265625000,489.4432983398437500,7.8566389083862305,37.9873390197753900,53,101,64,62,71,13666,2146962148,2147515830,2147296228,2147516278,2147090989,2146928128,2147712073,2147118299,3338,-1,8,56103
1352164004,5806,981.8099975585938000,196.7563934326172000,493.0317993164062500,7.7455148696899410,37.9798202514648440,52,99,65,64,71,13662,2146964626,2147517833,2147294226,2147517046,2147089709,2146922907,2147714998,2147123666,3270,0,8,61912
1352167604,5806,990.4799804687500000,197.1622924804687500,494.1661071777344000,7.7103710174560550,37.9735298156738300,52,100,65,63,70,13663,2146964233,2147516854,2147297481,2147514294,2147091026,2146920475,2147715757,2147121581,3377,-1,8,4071
1352171204,5804,997.4899902343750000,197.9452972412109400,493.8290100097656000,7.7208180427551270,37.9195289611816400,52,101,66,62,71,13660,2146962569,2147517275,2147293238,2147516123,2147090240,2146920896,2147717339,2147121691,3575,-1,8,50388
1352174804,5808,994.3800048828125000,198.0540008544922000,495.3210144042969000,7.6745820045471190,37.9380416870117200,52,99,66,62,72,13660,2146965952,2147519003,2147299090,2147515968,2147091629,2146923529,2147715648,2147121865,32,-1,8,57594
1352178404,5807,993.7999877929688000,197.5877075195312500,496.4713134765625000,7.6389269828796390,37.9873008728027340,53,105,65,63,71,13658,2146962496,2147514880,2147297700,2147521097,2147087049,2146919213,2147710692,2147121161,454,-1,8,20454
1352182004,5804,993.9899902343750000,197.9747924804687500,497.7408142089844000,7.5995659828186035,37.9851608276367200,52,101,65,63,71,13658,2146962523,2147517595,2147297563,2147516891,2147091200,2146924690,2147720201,2147123428,3379,-1,8,50549
1352185604,5807,998.5599975585938000,198.5408020019531200,497.7709960937500000,7.5986309051513670,37.9508399963378900,53,100,65,63,71,13657,2146965156,2147515538,2147297051,2147516790,2147091629,2146925513,2147721417,2147123401,199,-1,8,18896
1352189204,5806,1000.0900268554688000,198.9010009765625000,497.8583984375000000,7.5959200859069820,37.9292602539062500,52,100,65,62,72,13654,2146961316,2147516105,2147294272,2147517952,2147093833,2146927725,2147718939,2147120786,1,-1,8,34908
1352192804,5806,998.5900268554688000,198.4777984619140600,498.7452087402344000,7.5684170722961430,37.9708099365234400,52,101,66,63,71,13654,2146964553,2147518171,2147295040,2147516598,2147089901,2146922532,2147720082,2147122194,559,-1,8,12774
1352196404,5808,995.2800292968750000,199.2877960205078000,499.5902099609375000,7.5422067642211910,37.9361991882324200,52,101,66,63,72,13653,2146962752,2147520237,2147297334,2147520283,2147089389,2146922934,2147720786,2147118921,714,-1,8,12875
1352200004,5805,997.4500122070312000,200.7021942138672000,499.7008056640625000,7.5387740135192870,37.8505210876464840,52,101,65,62,70,13651,2146963172,2147517467,2147298084,2147517632,2147092196,2146922962,2147718390,2147122596,2891,-1,8,4237
1352203604,5804,1002.9199829101562000,200.5104064941406200,499.0295104980469000,7.5595989227294920,37.8502883911132800,51,102,65,63,70,13649,2146963254,2147521462,2147294317,2147514843,2147088612,2146923702,2147714395,2147123611,2408,-1,8,8027
1352207204,5805,1002.7500000000000000,200.9777069091797000,499.3727111816406000,7.5489549636840820,37.8278388977050800,52,101,65,63,71,13647,2146962523,2147519131,2147297700,2147514532,2147088786,2146922651,2147718034,2147123757,2726,-1,8,16230
1352210804,5807,1002.5300292968750000,200.9134063720703000,500.1944885253906000,7.5234599113464355,37.8460807800293000,53,101,66,63,71,13650,2146965174,2147518363,2147294976,2147518171,2147088173,2146925467,2147720749,2147121188,3578,-1,8,39199
1352214404,5808,999.5100097656250000,200.5570068359375000,500.2820129394531000,7.5207448005676270,37.8698997497558600,51,101,65,63,70,13652,2146963803,2147519451,2147296932,2147520512,2147092150,2146927762,2147720484,2147122422,74,-1,8,4712
1352218004,5803,1003.7199707031250000,200.4082946777343800,500.0192871093750000,7.5288939476013180,37.8737106323242200,52,100,65,62,71,13642,2146960137,2147519835,2147295789,2147517531,2147091830,2146925531,2147717522,2147119149,3563,-1,8,12795
1352221604,5808,999.8800048828125000,200.3802947998047000,500.0252075195312500,7.5287117958068850,37.8759117126464840,52,101,66,63,71,13651,2146964580,2147519780,2147296210,2147516562,2147094546,2146921581,2147716790,2147122203,259,-1,8,24682
1352225204,5808,998.3900146484375000,202.6040954589843800,502.2326049804687500,7.4602131843566895,37.7781410217285160,52,99,66,63,70,13647,2146963675,2147517229,2147296539,2147516873,2147090678,2146926180,2147718262,2147119734,50,-1,8,55516
1352228804,5805,998.8300170898438000,202.8211059570312500,502.4596862792969000,7.4531641006469730,37.7690315246582000,52,100,66,63,71,13627,2146965193,2147513280,2147297581,2147517942,2147089801,2146928731,2147716745,2147121289,98,-1,8,20341
1352232404,5806,995.6300048828125000,202.8619995117187500,502.7673950195312500,7.4436111450195310,37.7718009948730500,53,149,65,63,72,13605,2146963474,2147518235,2147295661,2147515337,2147092288,2146922715,2147720274,2147122642,3561,-1,8,182
1352236004,5808,993.5499877929688000,204.2541961669922000,504.0520019531250000,7.4037280082702640,37.7094688415527340,52,108,65,62,72,13642,2146962834,2147516205,2147298459,2147518518,2147089654,2146923812,2147718902,2147118080,12,0,8,36515
1352239604,5805,998.0000000000000000,203.1434020996093800,503.8067016601562500,7.4113469123840330,37.7726402282714840,52,102,64,63,71,13643,2146963099,2147516425,2147297508,2147517302,2147089508,2146926070,2147710738,2147118125,3255,-1,8,20438
1352243204,5805,998.7500000000000000,201.6336975097656200,503.6995849609375000,7.4146728515625000,37.8624916076660160,52,101,65,63,71,13643,2146964068,2147519780,2147296777,2147519561,2147087561,2146923556,2147715346,2147118171,3335,-1,8,32882
1352246804,5806,997.5900268554688000,201.4429931640625000,503.5297851562500000,7.4199428558349610,37.8722915649414060,51,102,65,63,71,13642,2146961170,2147518162,2147295314,2147519058,2147088448,2146921956,2147717558,2147122852,3437,-1,8,41379
1352250404,5809,997.5999755859375000,201.8829040527343800,503.8812866210937500,7.4090290069580080,37.8514518737793000,52,103,65,63,71,13642,2146960612,2147518089,2147299200,2147519661,2147090779,2146916662,2147716726,2147120694,3,-1,8,11565
1352254004,5808,1000.7800292968750000,203.0030059814453000,503.0638122558594000,7.4344120025634770,37.7681617736816400,52,104,66,62,71,13641,2146959890,2147521170,2147298102,2147518701,2147090541,2146924022,2147715620,2147119853,420,-1,8,7237
1352257604,5809,1006.6799926757812000,202.1013031005859400,500.8548889160156000,7.5029678344726560,37.7855110168457000,53,101,65,61,71,13641,2146963136,2147520054,2147297938,2147515136,2147088475,2146922020,2147717046,2147118683,41,0,8,57677
1352261204,5803,1005.6699829101562000,200.6882934570312500,500.5324096679687500,7.5129761695861820,37.8657798767089840,53,102,66,63,71,13623,2146961398,2147519570,2147294848,2147518372,2147090230,2146922450,2147715712,2147122176,376,0,8,59063
1352264804,5806,1004.4000244140625000,200.3173065185547000,499.8193054199219000,7.5350980758666990,37.8763999938964840,53,99,64,62,71,13636,2146961846,2147522752,2147298212,2147516617,2147091958,2146921572,2147716854,2147121947,789,-1,8,41374
1352268404,5808,1007.3300170898438000,200.7678985595703000,500.3924865722656000,7.5173149108886720,37.8586807250976560,51,105,66,63,71,13638,2146963931,2147516781,2147299136,2147518720,2147089453,2146926528,2147715675,2147123181,607,-1,8,26839
1352272004,5806,1003.2199707031250000,200.7315063476562500,500.2020874023437500,7.5232229232788090,37.8577117919921900,52,99,66,63,71,13638,2146961563,2147523035,2147299538,2147519195,2147092004,2146917321,2147713965,2147124955,612,-1,8,23440
1352275604,5802,1005.9899902343750000,201.5693054199218800,500.9321899414062500,7.5005707740783690,37.8190689086914060,52,101,65,63,70,13636,2146964397,2147516882,2147296091,2147517330,2147090569,2146918820,2147715373,2147123053,2632,-1,8,13980
1352279204,5806,1004.6599731445312000,201.9850006103515600,501.7473144531250000,7.4752769470214840,37.8077201843261700,52,103,66,62,71,13637,2146964434,2147519387,2147295378,2147515894,2147089389,2146924708,2147716288,2147116333,3191,-1,8,36230
1352282804,5805,1001.6099853515625000,203.1045989990234400,502.7543029785156000,7.4440169334411620,37.7568702697753900,52,104,65,62,72,13637,2146966052,2147520612,2147295369,2147515913,2147092498,2146916598,2147717174,2147121590,3275,-1,8,31659
1352286404,5805,998.3400268554688000,204.2433929443359400,504.3020935058594000,7.3959631919860840,37.7155189514160160,51,101,66,63,72,13633,2146963328,2147521481,2147296210,2147517092,2147093924,2146921700,2147711981,2147121325,3317,-1,8,36926
1352290004,5807,1001.7199707031250000,204.1728973388672000,504.0986938476562500,7.4022798538208010,37.7161216735839840,53,103,67,63,71,13637,2146965467,2147518409,2147297865,2147517833,2147092827,2146919497,2147718710,2147119707,3438,-1,8,2118
1352293604,5804,1006.6699829101562000,203.3943023681640600,503.4273986816406000,7.4231219291687010,37.7512512207031250,52,102,65,64,71,13638,2146963968,2147518198,2147298578,2147521106,2147090779,2146922825,2147718171,2147123181,3386,-1,8,10389
1352296855,5805,1006.2700195312500000,202.5532989501953000,502.9307861328125000,7.4385399818420410,37.7933998107910160,53,103,66,62,71,13637,2146962953,2147516708,2147296996,2147516836,2147091785,2146924708,2147713435,2147117110,3314,-1,8,36196
